Wind_Speed
25 25 24 23 22 22 21 20 20 21 21 20 18 18 20 24 27 27 27 28 28 28 30 29 29 29 29 30 31 32 33 34 35 35 37 38 39 41 42 44 46 47 48 49
24 24 24 23 22 22 22 21 21 21 22 21 19 18 22 24 27 28 28 30 30 30 32 32 31 32 32 32 33 35 36 37 38 39 41 41 43 44 45 47 49 51 51 52
21 22 22 22 22 22 22 23 22 23 23 23 22 16 22 25 27 29 29 30 30 31 32 33 34 34 35 35 37 39 40 41 42 43 45 45 46 47 48 51 53 54 55 56
18 18 19 20 21 22 22 24 24 25 25 24 24 21 22 25 26 28 29 30 30 31 33 34 35 36 37 39 41 43 44 45 46 48 48 49 50 51 52 54 55 57 58 59
15 16 17 19 21 22 23 25 26 27 27 26 26 25 23 25 25 28 30 30 31 32 33 34 36 38 40 42 44 46 48 49 50 51 52 53 53 54 56 57 58 59 60 61
16 16 17 19 22 24 26 28 29 29 28 27 26 25 25 27 27 28 30 31 31 32 32 34 36 39 41 44 46 48 50 51 52 53 54 55 56 57 58 59 60 61 62 63
17 19 21 22 24 26 28 30 32 32 30 29 28 27 26 31 32 32 32 32 32 32 33 34 36 38 40 43 45 47 49 51 52 54 55 56 57 58 59 60 61 62 62 62
20 21 23 24 26 28 29 31 33 35 35 33 30 28 26 31 34 35 36 36 35 34 34 35 36 38 40 42 44 46 48 50 52 53 54 56 57 58 59 60 62 62 62 62
23 23 23 25 27 29 30 31 34 36 38 37 35 32 26 31 36 39 40 39 38 37 37 38 39 40 41 42 43 45 47 49 50 52 53 54 56 57 58 60 60 61 61 62
26 26 25 26 28 30 32 33 35 37 40 43 42 37 33 36 37 39 40 40 39 40 40 41 41 42 42 43 44 45 46 48 49 51 53 54 55 56 58 59 60 60 62 63
28 28 27 28 29 31 33 34 36 39 41 44 47 45 37 38 39 44 45 44 44 43 43 43 43 43 43 44 45 46 47 48 49 51 52 52 54 55 57 58 60 62 63 63
31 32 31 31 32 34 35 36 37 40 42 44 48 48 38 41 46 50 50 48 48 47 47 47 46 46 46 46 47 48 48 49 49 50 51 52 53 55 57 59 62 63 63 64
35 35 36 36 35 37 38 38 39 41 44 46 49 49 44 46 50 52 52 51 51 51 51 51 50 50 49 49 49 49 49 49 49 50 50 51 53 56 58 60 62 63 63 63
38 38 38 39 38 40 41 40 40 42 44 47 48 48 45 48 52 52 51 52 52 52 53 53 52 52 51 51 50 50 50 50 50 51 52 53 55 57 59 60 61 62 62 62
40 40 40 40 39 40 41 39 39 41 43 46 45 46 47 49 50 50 50 50 51 51 52 52 52 51 51 50 50 50 51 51 52 52 53 55 56 58 59 60 60 60 60 59
39 39 38 36 35 37 37 34 36 38 39 40 41 42 43 45 47 47 48 49 49 49 49 49 49 50 50 51 51 51 52 53 53 54 55 56 57 57 57 57 56 55 55 54
32 33 34 32 32 32 30 31 33 34 35 37 39 41 43 43 43 44 45 46 47 46 46 47 48 49 50 51 52 52 53 53 54 55 55 55 55 54 53 52 51 51 51 49
27 28 31 32 32 31 30 31 33 35 35 36 38 40 41 42 42 43 44 45 46 47 47 48 49 50 51 52 53 53 52 52 52 52 52 51 50 49 49 48 48 48 48 48
27 29 32 33 34 33 30 34 36 37 37 39 41 42 42 43 44 46 47 48 49 50 51 51 52 52 53 53 53 52 51 51 51 50 49 49 48 47 47 47 47 47 47 48
27 29 31 33 36 37 36 38 40 41 43 44 45 45 46 48 49 49 50 51 51 52 53 53 53 54 54 54 53 52 51 51 51 50 50 49 48 48 48 48 48 48 48 48
30 31 33 35 38 39 40 42 45 47 49 50 51 51 52 53 54 55 56 56 56 56 56 56 56 56 56 56 55 54 52 52 51 50 50 49 49 49 49 49 50 50 50 50
33 35 37 39 41 42 44 47 49 51 53 54 55 56 57 58 59 59 60 61 61 61 60 60 59 58 58 57 56 54 53 52 51 50 50 50 50 51 51 51 51 51 51 51
37 38 41 44 45 47 50 52 53 55 57 58 59 60 62 63 64 64 64 65 65 64 64 63 61 60 58 58 57 55 53 52 51 51 51 52 52 52 52 53 53 53 53 54
41 43 47 50 49 52 54 56 57 59 60 62 63 65 66 67 67 68 68 68 68 67 66 64 62 60 58 57 56 56 54 53 52 53 53 53 53 53 54 54 54 54 55 55
46 50 54 55 55 57 59 60 62 63 65 66 67 68 69 70 70 70 70 70 69 67 65 63 61 59 57 57 56 55 55 54 54 54 53 53 53 54 54 54 54 55 55 55
50 56 59 60 60 62 63 65 67 68 69 70 70 71 71 71 71 71 71 70 68 66 63 61 59 58 57 56 56 56 56 55 54 53 53 53 53 53 53 53 53 54 54 54
Wind_Direction
270 274 278 283 286 288 290 294 297 300 303 307 310 308 294 286 285 283 280 278 275 272 271 272 271 271 272 273 274 275 277 279 283 286 287 290 293 296 298 299 300 302 303 304
272 275 278 282 284 286 289 291 294 298 302 306 311 315 301 294 290 288 285 282 279 276 273 272 270 269 270 271 272 273 275 277 281 283 286 289 291 294 296 298 299 301 302 303
275 277 280 283 285 287 290 292 295 299 302 306 308 313 304 298 294 291 289 287 283 280 277 274 272 270 270 270 271 273 275 278 280 282 285 288 290 293 294 295 298 299 300 301
279 280 283 286 288 290 293 294 297 300 303 308 309 313 307 303 300 296 293 290 288 285 281 278 275 273 272 272 274 276 277 279 281 283 286 288 290 292 293 294 297 298 299 300
283 284 286 289 291 293 294 295 298 300 302 306 307 310 308 302 300 298 296 294 292 290 287 284 281 278 276 275 276 277 278 281 283 285 287 289 291 292 293 295 296 297 297 298
288 289 289 291 292 294 295 296 297 298 300 303 305 308 309 303 300 298 297 297 296 294 292 290 287 285 283 282 282 282 284 285 287 289 290 291 291 292 293 294 295 295 296 297
288 290 291 292 293 294 296 298 299 300 300 302 305 308 312 307 304 301 299 298 298 297 296 294 292 289 288 287 287 287 288 288 288 289 290 290 291 291 292 292 293 293 295 295
288 290 292 293 294 295 297 299 300 302 303 304 305 308 314 306 303 301 299 299 299 299 298 297 296 294 293 291 290 290 290 289 289 289 289 290 290 291 291 292 292 294 295 295
293 293 294 295 296 297 298 299 300 302 302 303 303 305 310 303 300 300 299 300 302 302 301 300 299 297 295 293 292 291 291 290 289 289 289 289 289 290 291 291 293 294 294 294
293 294 295 296 297 297 299 301 302 303 304 305 304 306 315 306 302 299 299 301 302 300 299 298 298 297 296 294 293 293 292 290 290 289 289 289 289 289 290 291 293 293 294 295
294 295 296 297 298 298 298 299 300 301 302 303 304 306 315 307 302 298 299 301 301 299 299 298 297 297 296 294 293 293 291 290 290 290 289 289 289 290 291 292 293 294 296 297
293 295 296 297 298 297 297 299 300 302 302 302 301 304 311 305 300 299 302 303 303 303 302 302 301 300 299 297 296 295 294 293 292 291 291 290 290 291 292 293 294 295 296 297
292 294 296 296 297 297 298 300 301 301 300 300 299 303 306 302 299 300 303 304 304 304 304 303 303 302 301 300 299 297 296 295 294 294 293 292 292 292 293 294 294 295 295 296
291 293 295 297 299 298 298 299 300 299 299 298 300 302 303 300 299 302 303 304 304 304 303 303 302 302 301 301 300 298 297 296 295 295 294 293 292 292 293 294 295 295 295 296
291 293 294 295 297 297 298 302 303 300 300 301 304 303 303 301 303 305 305 305 305 304 304 303 303 302 302 301 299 298 297 296 295 295 294 293 293 293 294 294 294 295 295 295
291 293 294 296 297 297 300 303 300 300 301 303 304 305 303 305 307 308 308 308 307 307 307 306 305 304 303 301 300 298 297 296 295 294 294 293 293 294 293 294 294 294 294 294
293 294 295 298 299 300 304 305 303 304 305 305 306 306 308 309 310 311 310 310 311 311 311 309 307 305 304 302 300 299 298 297 295 295 294 293 294 294 294 294 294 294 294 294
298 298 299 303 304 305 310 307 305 306 307 306 307 308 310 311 312 312 313 313 313 312 312 311 310 308 306 304 302 301 300 299 298 297 295 294 295 295 295 295 295 295 294 294
296 297 299 302 304 307 310 306 306 307 308 307 309 311 311 312 312 313 313 313 313 313 312 311 310 309 307 305 303 302 300 299 298 298 297 295 295 295 296 296 296 295 295 295
293 295 298 301 303 307 310 307 307 307 306 309 310 311 311 310 310 311 311 311 311 310 309 309 309 308 307 305 304 302 300 299 299 298 296 295 295 295 295 296 296 295 295 296
296 297 299 299 301 304 304 304 304 305 308 309 309 309 309 309 309 309 308 308 309 308 307 307 306 306 306 304 303 301 299 298 298 297 296 295 295 295 295 295 295 296 296 296
295 297 298 299 300 302 301 301 302 304 305 306 306 306 305 305 305 306 306 306 306 306 305 305 305 304 303 302 301 299 297 297 297 296 296 295 295 295 295 295 295 295 296 296
294 297 298 297 298 299 299 300 302 303 303 303 303 303 303 303 304 304 304 304 304 304 304 304 304 303 301 300 299 297 296 296 295 295 295 295 295 295 295 295 295 295 296 296
294 296 294 293 295 296 298 299 300 300 301 301 300 301 301 302 302 302 302 302 303 303 303 303 303 301 300 298 297 296 296 295 294 294 295 296 296 296 296 297 296 296 296 297
297 294 292 293 296 296 297 298 298 298 299 299 299 299 300 300 301 301 301 302 302 303 303 302 301 300 299 298 296 295 295 295 295 295 296 296 296 297 297 298 298 298 298 299
295 292 293 295 296 296 297 297 297 298 298 298 298 298 299 300 300 301 301 302 302 302 302 301 301 300 299 297 296 296 296 297 296 296 297 297 297 298 298 299 299 299 300 300
Height
5864 5865 5863 5862 5861 5860 5858 5857 5856 5854 5851 5850 5849 5847 5842 5838 5836 5835 5833 5832 5831 5830 5827 5826 5825 5824 5823 5821 5819 5817 5815 5813 5810 5808 5804 5801 5798 5794 5790 5785 5780 5776 5772 5767
5860 5859 5858 5857 5856 5855 5854 5853 5851 5850 5847 5846 5845 5843 5836 5833 5830 5828 5826 5824 5823 5822 5820 5819 5817 5816 5815 5813 5811 5809 5806 5804 5801 5798 5795 5792 5788 5785 5780 5775 5770 5765 5761 5756
5855 5855 5853 5852 5851 5851 5849 5848 5847 5845 5843 5842 5841 5840 5832 5828 5824 5822 5820 5817 5815 5814 5812 5811 5810 5808 5806 5804 5802 5799 5797 5794 5791 5788 5785 5782 5778 5774 5770 5764 5759 5754 5749 5744
5850 5850 5849 5848 5846 5845 5845 5843 5842 5840 5838 5836 5834 5833 5829 5823 5818 5815 5813 5810 5808 5806 5805 5803 5801 5800 5798 5795 5792 5790 5787 5784 5781 5777 5774 5771 5767 5763 5759 5753 5749 5743 5737 5731
5846 5846 5845 5844 5842 5841 5839 5838 5836 5834 5832 5831 5828 5827 5824 5818 5814 5810 5806 5803 5801 5799 5797 5795 5793 5791 5789 5786 5783 5780 5777 5774 5770 5767 5764 5760 5756 5752 5747 5742 5736 5730 5724 5718
5842 5841 5841 5839 5838 5836 5833 5832 5830 5829 5827 5826 5823 5821 5818 5812 5808 5804 5800 5797 5794 5793 5790 5788 5785 5783 5780 5777 5774 5771 5768 5764 5761 5757 5753 5749 5744 5739 5734 5729 5724 5717 5711 5705
5839 5837 5836 5835 5833 5831 5828 5826 5823 5821 5820 5819 5817 5814 5812 5805 5800 5796 5794 5791 5788 5786 5783 5780 5777 5774 5771 5768 5764 5761 5758 5754 5750 5745 5741 5736 5731 5726 5721 5715 5709 5703 5697 5691
5834 5834 5832 5829 5827 5825 5823 5820 5817 5814 5812 5811 5810 5808 5807 5799 5793 5788 5785 5783 5781 5779 5776 5772 5769 5765 5762 5758 5754 5750 5746 5742 5737 5733 5728 5723 5718 5712 5707 5701 5695 5689 5683 5676
5829 5829 5827 5824 5821 5819 5816 5814 5811 5807 5803 5802 5801 5801 5801 5793 5786 5781 5777 5774 5772 5770 5766 5763 5759 5755 5751 5748 5743 5739 5735 5730 5725 5720 5715 5710 5704 5698 5693 5686 5680 5674 5667 5661
5822 5822 5821 5818 5816 5813 5810 5807 5804 5799 5794 5790 5789 5791 5792 5784 5778 5773 5769 5766 5765 5761 5757 5753 5749 5745 5741 5736 5732 5727 5723 5718 5712 5707 5701 5696 5690 5684 5678 5671 5665 5658 5652 5645
5815 5815 5815 5812 5810 5806 5804 5801 5796 5792 5788 5783 5777 5780 5781 5773 5766 5762 5759 5757 5754 5751 5747 5743 5739 5735 5730 5725 5720 5715 5710 5705 5699 5693 5688 5682 5676 5670 5663 5657 5650 5643 5637 5630
5808 5807 5806 5805 5802 5799 5796 5793 5790 5786 5781 5774 5768 5770 5771 5763 5755 5749 5747 5745 5741 5737 5733 5729 5725 5721 5717 5712 5707 5702 5696 5690 5685 5679 5673 5668 5661 5655 5648 5642 5635 5628 5622 5615
5801 5799 5797 5796 5796 5791 5787 5784 5781 5777 5772 5766 5760 5761 5759 5752 5743 5738 5735 5731 5727 5724 5719 5715 5711 5707 5702 5697 5692 5687 5681 5675 5670 5664 5658 5653 5646 5640 5633 5627 5620 5613 5606 5599
5792 5791 5789 5787 5784 5780 5777 5776 5772 5767 5762 5756 5752 5749 5748 5740 5732 5729 5725 5720 5715 5711 5706 5702 5697 5692 5687 5682 5676 5671 5666 5660 5655 5649 5643 5637 5631 5624 5618 5611 5604 5597 5590 5583
5782 5781 5779 5777 5775 5770 5767 5766 5762 5756 5752 5746 5743 5738 5734 5726 5721 5717 5713 5708 5703 5698 5693 5688 5682 5677 5672 5666 5661 5656 5650 5644 5639 5633 5627 5621 5615 5608 5601 5595 5588 5581 5574 5567
5774 5771 5769 5768 5766 5761 5759 5758 5752 5747 5743 5737 5733 5728 5723 5717 5712 5707 5701 5696 5691 5685 5680 5674 5668 5663 5657 5651 5646 5641 5635 5629 5623 5617 5611 5605 5598 5592 5585 5578 5571 5565 5558 5551
5766 5762 5759 5758 5755 5753 5751 5748 5743 5739 5735 5730 5724 5720 5713 5708 5703 5697 5691 5685 5679 5673 5667 5661 5655 5649 5643 5637 5631 5625 5619 5614 5607 5601 5595 5588 5582 5575 5569 5562 5556 5549 5543 5537
5757 5754 5750 5748 5747 5744 5745 5738 5733 5729 5726 5721 5715 5710 5705 5699 5694 5687 5681 5674 5668 5662 5655 5649 5643 5636 5630 5623 5616 5610 5604 5598 5592 5586 5579 5573 5566 5560 5554 5547 5541 5535 5529 5523
5749 5746 5742 5740 5736 5735 5735 5729 5723 5719 5716 5711 5706 5701 5695 5690 5684 5678 5670 5663 5656 5650 5643 5636 5630 5623 5616 5609 5603 5596 5590 5583 5577 5571 5565 5558 5552 5546 5540 5534 5528 5521 5515 5509
5742 5739 5736 5732 5726 5724 5724 5718 5712 5709 5705 5700 5695 5689 5684 5678 5673 5669 5660 5653 5646 5639 5632 5624 5617 5610 5603 5596 5589 5582 5576 5569 5563 5557 5551 5544 5538 5533 5527 5521 5514 5508 5502 5496
5733 5730 5728 5723 5717 5716 5713 5707 5702 5698 5694 5688 5682 5677 5672 5665 5659 5654 5647 5640 5633 5626 5619 5612 5604 5597 5589 5582 5576 5569 5562 5556 5550 5544 5537 5531 5525 5519 5513 5507 5501 5494 5488 5482
5723 5721 5718 5713 5709 5708 5701 5695 5691 5687 5681 5675 5670 5664 5659 5653 5646 5640 5633 5626 5619 5612 5605 5597 5590 5583 5575 5568 5562 5555 5549 5543 5537 5530 5524 5517 5511 5505 5499 5493 5487 5480 5474 5468
5714 5712 5707 5703 5700 5695 5688 5683 5679 5673 5669 5663 5657 5651 5644 5638 5632 5626 5619 5611 5604 5597 5590 5582 5575 5569 5561 5553 5546 5540 5534 5528 5523 5516 5509 5503 5497 5490 5484 5478 5472 5466 5459 5453
5704 5701 5694 5689 5688 5683 5677 5671 5666 5661 5655 5649 5642 5636 5629 5623 5617 5610 5603 5595 5588 5581 5574 5567 5560 5553 5546 5538 5530 5524 5519 5513 5507 5501 5495 5489 5483 5476 5470 5463 5457 5450 5444 5438
5691 5685 5679 5676 5675 5670 5664 5657 5652 5646 5640 5634 5627 5620 5613 5607 5600 5593 5586 5579 5572 5565 5557 5550 5544 5537 5530 5523 5516 5509 5503 5498 5492 5486 5480 5474 5468 5461 5455 5449 5442 5436 5429 5423
5675 5668 5664 5663 5658 5653 5649 5641 5635 5630 5624 5617 5611 5604 5597 5590 5584 5577 5569 5562 5555 5548 5541 5534 5528 5521 5514 5507 5501 5494 5488 5482 5477 5471 5465 5459 5453 5447 5440 5434 5428 5421 5415 5408